Regional Weather Roundup
Issued by NWS Upton, NY

Home | Current Version | Previous Version | Text Only | Print | Product List | Glossary On
Versions: 1 2 3 4 5 6 7 8 9 10 11 12 13 14 15 16 17 18 19 20 21 22 23 24 25 26 27 28 29 30 31 32 33 34 35 36 37 38 39 40 41 42 43 44 45 46 47 48 49 50
000
ASUS41 KOKX 030905
RWROKX

REGIONAL WEATHER ROUNDUP
NATIONAL WEATHER SERVICE NEW YORK NY
400 AM EST TUE MAR 03 2015

NOTE: "FAIR" INDICATES FEW OR NO CLOUDS BELOW 12,000 FEET WITH NO
SIGNIFICANT WEATHER AND/OR OBSTRUCTIONS TO VISIBILITY.

NYZ071-072-176-178-NJZ106-104-031000-
NEW YORK CITY METRO AREA


CITY           SKY/WX    TMP DP  RH WIND       PRES   REMARKS
CENTRAL PARK   CLEAR     25   8  48 NW6       30.40S WCI  18
LAGUARDIA APRT CLEAR     26  11  52 NW8       30.39R WCI  18
KENNEDY INTL   CLEAR     24   9  52 NW7       30.41R WCI  16
NEWARK/LIBERTY PTCLDY    22  10  60 W6        30.40S WCI  14
BRNX BOT. GARD   N/A    N/A N/A N/A W3        30.41R
TETERBORO      CLEAR     20   8  60 CALM      30.39R
$$

NYZ177-179-078>081-031000-
LONG ISLAND NEW YORK

CITY           SKY/WX    TMP DP  RH WIND       PRES   REMARKS
FARMINGDALE    CLEAR     18   9  68 W5        30.40R WCI  11
ISLIP          NOT AVBL
SHIRLEY        CLEAR     23   8  52 N5        30.40R WCI  17
WESTHAMPTON    CLEAR     22   7  52 NW8       30.40R WCI  12
MONTAUK POINT  NOT AVBL
$$

NYZ052-065-067-031000-
HUDSON VALLEY

CITY           SKY/WX    TMP DP  RH WIND       PRES   REMARKS
WHITE PLAINS   CLEAR     15   7  70 W3        30.35R
NEWBURGH       CLEAR     10   5  79 CALM      30.36R
MONTGOMERY     CLEAR      8   2  76 CALM      30.35R
POUGHKEEPSIE   CLEAR      6   0  76 E3        30.39R
ALBANY         CLEAR     16   4  59 NW6       30.37R WCI   7
$$

NJZ001-105-106-008-010-013-015-019>022-104-031000-
NEW JERSEY

CITY           SKY/WX    TMP DP  RH WIND       PRES   REMARKS
NEWARK/LIBERTY PTCLDY    22  10  60 W6        30.40S WCI  14
TETERBORO      CLEAR     20   8  60 CALM      30.39R
CALDWELL       CLEAR     14   5  67 CALM      30.40R
MORRISTOWN     CLEAR     14   7  73 CALM      30.39S
SOMERVILLE     CLEAR     16   6  65 CALM      30.39R
SUSSEX         CLEAR      8   2  76 CALM      30.37S
ANDOVER          N/A      8   3  80 CALM      30.37S
TRENTON        CLEAR     21   8  57 CALM      30.40R
MILLVILLE      PTCLDY    26  14  60 N6        30.41R WCI  19
ATLANTIC CITY  PTCLDY    22  12  65 N6        30.40S WCI  14
WRIGHTSTOWN    CLEAR     20  11  66 N5        30.38S WCI  14
TOMS RIVER     CLEAR     21   9  58 N7        30.41S WCI  13
BELMAR         CLEAR     23   7  50 NW5       30.39S WCI  17
$$

PAZ047>061-062-071-031000-
EASTERN PENNSYLVANIA

CITY           SKY/WX    TMP DP  RH WIND       PRES   REMARKS
PHILADELPHIA   PTCLDY    26  10  50 N12       30.43S WCI  16
ALLENTOWN      CLEAR     12   3  67 CALM      30.40S
SCRANTON       CLEAR     12   4  70 CALM      30.35S
$$

CTZ002-004>006-009-010-012-RIZ004-006-007-MAZ004-011-015-031000-
SOUTHERN NEW ENGLAND
 IN CT

CITY           SKY/WX    TMP DP  RH WIND       PRES   REMARKS
BRADLEY INTL   CLEAR     17   5  59 W7        30.35R WCI   8
HARTFORD       CLEAR     20   7  57 VRB6      30.38R WCI  12
DANBURY        CLEAR      6   0  76 SW3       30.38R
WTRBRY/OXFORD  CLEAR     18   1  49 NW3       30.34R
BRIDGEPORT     CLEAR     16   8  71 NW8       30.39R WCI   5
MERIDEN        CLEAR     16   6  65 NW7       30.38R WCI   6
NEW HAVEN      CLEAR     21   8  57 CALM      30.38R
CHESTER        FAIR      21   9  58 NW6       30.34R WCI  14
GROTON         CLEAR     19   8  62 NW8       30.36R WCI   9
WILLIMANTIC    CLEAR     15   4  61 W3        30.35R

 IN RI

CITY           SKY/WX    TMP DP  RH WIND       PRES   REMARKS
PROVIDENCE     CLEAR     18   6  59 W5        30.34R WCI  11
BLOCK ISLAND   CLEAR     25   9  50 NW9       30.33R WCI  15
WESTERLY       CLEAR     20   7  57 W3        30.35S

 IN MA

CITY           SKY/WX    TMP DP  RH WIND       PRES   REMARKS
BOSTON         CLEAR     22   4  46 NW9       30.33R WCI  12
WORCESTER      CLEAR     13   4  67 NW7       30.26R WCI   3
WESTFIELD      CLEAR     14   4  64 W5        30.34R WCI   6
PROVINCETOWN   CLEAR     25   7  46 NW20G28   30.31R WCI  11
NANTUCKET      CLEAR     25  10  53 NW16      30.31R WCI  12
$$

ANZ330-335-338-340-345-350-353-355-031000-
COASTAL MARINE OBSERVATIONS


STATION/POSITION TIME  SKY/WX   TEMP    WIND        PRES    VSBY  WAVE
                                AIR SEA DIR/SP/G                  HT/PER
                 (UTC)          (F)     (DEG/KT/KT) (MB)    (MI)  (FT/S)
NY HARB ENTRANCE 0800            29 38  340/ 12/ 16 1028.8          2/ 4
4S FIRE IS       NOT AVBL
20S FIRE ISLAND  0800               37              1028.7          3/ 5
23SW MTP         0900                                 N/A           3/ 4
HUDSON CANYON    NOT AVBL
EXECUTION ROCKS  NOT AVBL
WESTERN LI SOUND NOT AVBL
CENTRAL LI SOUND NOT AVBL
EASTERN LI SOUND NOT AVBL
ROBBINS REEF     0900            25     320/  8/ 10 1028.3
$$


>>>>>>>>>>>>>>>>>>>>>>>>>>>> KEY <<<<<<<<<<<<<<<<<<<<<<<<<<<
>                                                          <
>     SKY/WX - SKY CONDITION/PRESENT WEATHER               <
>     TMP    - TEMPERATURE IN FAHRENHEIT                   <
>     DP     - DEWPOINT IN FAHRENHEIT                      <
>     RH     - RELATIVE HUMIDITY IN PERCENT                <
>     WIND   - DIRECTION AND SPEED IN MPH                  <
>     PRES   - MEAN SEA LEVEL PRESSURE IN INCHES OF HG     <
>     WCI    - WIND CHILL INDEX                            <
>     VSB    - VISIBILITY IN MILES                         <
>     HX     - HEAT INDEX                                  <
>     TC     - TEMPERATURE IN CELSIUS                      <
>     VRB    - VARIABLE WIND DIRECTION                     <
>                                                          <
>>>>>>>>>>>>>>>>>>>>>>>>>>>> KEY <<<<<<<<<<<<<<<<<<<<<<<<<<<





USA.gov is the U.S. government's official web portal to all federal, state and local government web resources and services.